weather.gov     
National Weather Service

Regional Weather Roundup
NWS Homepage
This page is being discontinued on March 12, 2014.
The same data is available at this site. Please update your bookmarks.
Thank you, and we apologize for the inconvenience.
Please send an email to SR-SRH.Webmaster@noaa.gov with any concerns.


Current Version
Previous Version:    01  02  03  04  05  06  07  08  09  10  11  12  13  14  15  16  17  18  19  20  21  22  23  24  25  26  27  28  29  30  
   31  32  33  34  35  36  37  38  39  40  41  42  43  44  45  46  47  48  49  50  51  52  53  
[Printable]
875
ASUS43 KOAX 222010
RWRNE

WEATHER ROUNDUP FOR NEBRASKA
NATIONAL WEATHER SERVICE OMAHA NE
200 PM CST MON DEC 22 2014

NOTES: SATELLITE DATA IS BEING USED TO AUGMENT CLOUD COVER ABOVE
       12000 FEET.
       "FAIR" INDICATES FEW OR NO CLOUDS BELOW 12,000 FEET WITH NO
       SIGNIFICANT WEATHER AND/OR OBSTRUCTIONS TO VISIBILITY.

  * THESE STATIONS DO NOT REPORT WEATHER SUCH AS RAIN...SNOW OR FOG.

NEZ001>004-019>022-054>056-222100-
NEBRASKA PANHANDLE

CITY           SKY/WX    TMP DP  RH WIND       PRES   REMARKS
SCOTTSBLUFF    MOSUNNY   41  23  48 NW24G30   29.63S
ALLIANCE       MOSUNNY   39  23  52 NW22G32   29.57S WCI  29
CHADRON        SUNNY     42  24  49 NW25G40   29.58F
KIMBALL        MOSUNNY   36  27  70 NW21G28   29.62F WCI  25
SIDNEY         MOSUNNY   40  22  48 NW28G36   29.62F WCI  29
$$

NEZ057>060-069>072-079>082-222100-
SOUTHWEST NEBRASKA

CITY           SKY/WX    TMP DP  RH WIND       PRES   REMARKS
NORTH PLATTE   MOSUNNY   48  26  42 NW18G30   29.53F
IMPERIAL       MOSUNNY   44  23  43 NW26G35   29.59F
LEXINGTON      MOSUNNY   49  29  46 NW29G36   29.51S
MCCOOK         PTSUNNY   50  25  37 NW24G31   29.55F
OGALLALA       MOSUNNY   43  28  56 NW20G25   29.58S
$$

NEZ005>010-023>029-035>040-094-222100-
NORTH CENTRAL NEBRASKA

CITY           SKY/WX    TMP DP  RH WIND       PRES   REMARKS
VALENTINE      MIX PCPN  36  31  82 NW16G26   29.48S WCI  26
AINSWORTH      CLOUDY    37  31  80 NW17G25   29.48S WCI  27
BROKEN BOW     CLOUDY    44  30  57 NW18G28   29.47F
O`NEILL        CLOUDY    39  37  92 NW17G24   29.44S WCI  29
THEDFORD       PTSUNNY   44  28  54 NW23G31   29.49F
$$

NEZ041-046>049-061>064-073>077-083>087-222100-
SOUTH CENTRAL NEBRASKA

CITY           SKY/WX    TMP DP  RH WIND       PRES   REMARKS
GRAND ISLAND   CLOUDY    45  32  60 NW23G29   29.46F
AURORA         CLOUDY    46  33  60 NW26G32   29.45F
HASTINGS       PTSUNNY   47  30  51 NW29G36   29.46F
HEBRON         CLOUDY    47  36  64 NW14G22   29.45F
HOLDREGE       MOSUNNY   48  31  51 NW20G29   29.49F
KEARNEY *      PTSUNNY   46  28  49 NW22      29.48F
YORK           CLOUDY    45  37  76 NW17G26   29.44F
$$

NEZ011>018-030>034-042>045-222100-
NORTHEAST NEBRASKA

CITY           SKY/WX    TMP DP  RH WIND       PRES   REMARKS
NORFOLK        CLOUDY    42  37  82 NW10      29.41F
ALBION         CLOUDY    42  34  73 NW22      29.43S
BLAIR          LGT RAIN  43  41  93 S5        29.40S
COLUMBUS *     CLOUDY    43  36  75 NW13      29.44S
FREMONT        LGT RAIN  43  42  95 NW8       29.42S
TEKAMAH        LGT RAIN  43  41  93 SE8       29.41F FOG
WAYNE          DRIZZLE   41  39  92 NW10      29.41F
$$

NEZ050>053-065>068-078-088>093-222100-
SOUTHEAST NEBRASKA

CITY           SKY/WX    TMP DP  RH WIND       PRES   REMARKS
LINCOLN        CLOUDY    45  39  79 NW14      29.44F
OMAHA EPPLEY   LGT RAIN  43  42  97 S7        29.42F FOG
BEATRICE       CLOUDY    44  41  88 NW13      29.43F
FALLS CITY     LGT RAIN  46  32  58 SW5       29.41F
NEBRASKA CITY  LGT RAIN  44  44 100 S3        29.40F
PLATTSMOUTH    RAIN      42  41  95 S6        29.40F
$$

NEZ044-045-051>053-067-222100-
OMAHA AREA

CITY           SKY/WX    TMP DP  RH WIND       PRES   REMARKS
OMAHA EPPLEY   LGT RAIN  43  42  97 S7        29.42F FOG
BLAIR          LGT RAIN  43  41  93 S5        29.40S
FREMONT        LGT RAIN  43  42  95 NW8       29.42S
MILLARD        LGT RAIN  43  41  93 CALM      29.40F
OFFUTT AFB     LGT RAIN  43  42  96 SE5       29.40F
PLATTSMOUTH    RAIN      42  41  95 S6        29.40F
WAHOO          CLOUDY    43  39  87 NW8       29.41S FOG
$$




U.S. Dept. of Commerce
NOAA National Weather Service
1325 East West Highway
Silver Spring, MD 20910
E-mail: w-nws.webmaster@noaa.gov
Page last modified: May 16, 2007
NATIONAL WEATHER SERVICE: for Safety, for Work, for Fun - FOR LIFE